Vorticity
4 4 5 4 4 4 3 4 4 4 3 2 3 4 5 7 7 7 6 6 6 6 5 5 5 3 7 8 2 1 9 13 10 10 10 6 7 6 7 11 11 10 10 11 12 8 8 15 13 7 8 8 5 5 3 2 5 7 8 10 11 10 9 7 6 7 8 11 12 11 11 10 10 9 6 6 6 8 8 9 10 9 6 6 8
4 4 4 3 3 3 4 5 5 4 4 4 4 5 7 9 7 6 6 5 6 7 5 4 5 5 5 5 4 6 15 22 15 9 9 6 6 6 8 11 13 12 10 11 13 9 8 13 13 9 9 11 8 4 5 3 2 7 8 8 11 10 9 7 5 5 4 6 8 9 11 9 8 7 6 8 8 8 8 9 9 5 4 6 7
4 5 4 5 5 5 6 5 4 6 9 7 0 3 8 9 7 3 3 6 5 3 5 5 4 4 6 7 8 9 18 24 16 9 9 7 6 7 8 10 14 15 14 12 10 12 12 11 13 11 15 16 5 2 8 4 0 4 7 8 9 10 9 7 6 4 3 3 3 5 8 8 7 7 7 5 3 4 5 5 5 3 4 6 6
4 4 4 6 5 5 6 4 7 5 6 4 -5 -2 3 3 7 6 1 3 5 3 3 5 4 4 6 10 10 11 20 23 14 9 8 7 5 7 9 10 12 14 17 15 10 13 12 10 17 17 18 16 2 6 11 2 1 3 7 8 6 8 8 8 8 6 7 6 5 5 5 6 5 5 5 3 3 6 7 5 3 5 6 6 6
6 6 6 6 5 7 6 5 8 3 4 9 3 6 4 -5 1 10 12 8 3 3 5 6 4 3 8 12 11 16 24 20 11 9 7 6 6 6 9 9 9 11 16 19 16 15 11 9 18 15 13 14 4 5 9 4 3 2 6 9 5 7 7 7 9 7 8 8 9 9 7 7 6 7 8 7 9 9 8 7 6 7 8 6 6
8 9 9 11 12 16 18 19 19 16 16 12 8 15 7 -5 -3 4 16 20 13 4 3 8 6 3 10 13 14 20 24 15 8 10 7 6 8 6 8 7 7 11 15 20 20 18 17 13 16 17 8 10 15 12 4 4 7 2 2 7 7 7 6 5 7 7 7 7 8 9 8 8 7 8 9 8 8 7 6 6 6 7 8 7 7
11 12 12 12 12 13 14 13 13 14 17 11 8 13 8 4 7 7 10 14 15 10 3 8 7 6 13 14 17 22 18 12 8 9 7 7 9 6 6 6 5 10 12 16 19 21 26 20 17 28 17 9 23 21 6 4 10 6 0 4 6 6 7 5 5 6 6 6 6 6 6 6 6 6 6 6 5 5 5 5 6 6 7 7 8
13 12 10 8 9 10 8 6 9 6 8 17 12 8 12 8 4 8 24 29 16 8 6 9 8 8 15 15 16 20 14 10 9 7 8 8 9 7 5 5 4 6 7 10 14 14 23 21 9 19 24 19 21 14 8 11 10 7 2 1 5 4 7 7 5 6 6 6 5 4 5 4 5 4 4 5 5 5 5 5 6 6 6 6 8
14 10 8 7 9 14 15 15 24 18 12 22 21 15 10 8 10 2 20 44 25 9 11 9 10 12 15 15 14 16 12 9 8 7 8 7 6 7 6 5 4 5 5 5 9 8 13 19 9 8 15 19 22 8 4 13 9 9 8 2 3 3 6 8 6 6 6 6 6 5 6 5 5 5 5 4 5 6 6 6 6 6 7 6 7
11 10 8 8 8 12 13 12 22 22 13 14 23 32 16 14 34 11 8 36 19 9 16 7 10 14 13 14 11 11 9 8 8 7 7 5 4 6 5 5 3 5 6 3 6 7 10 15 14 15 11 11 26 16 2 13 14 11 14 9 5 2 3 8 8 6 7 7 7 6 6 6 5 5 6 6 6 6 6 7 7 6 6 6 6
6 7 5 6 8 8 9 12 15 13 16 17 11 17 17 17 25 2 4 28 11 5 13 6 11 13 12 13 9 9 9 9 10 8 7 4 3 5 3 4 3 4 6 4 4 5 8 12 10 15 15 11 23 17 1 13 17 10 15 12 7 4 -1 4 8 6 7 7 6 7 6 7 6 6 6 6 6 6 6 6 7 6 5 5 5
4 7 6 6 8 6 7 11 12 9 15 22 10 15 40 38 15 -3 6 17 9 7 8 7 12 10 10 12 10 11 10 10 10 7 6 4 4 4 3 3 4 4 5 4 4 4 5 8 6 7 12 12 16 16 9 13 16 15 21 15 4 6 5 3 4 5 6 6 5 5 6 6 6 6 5 5 5 5 5 5 6 5 5 5 4
6 8 7 7 8 7 10 7 11 11 4 21 33 37 49 30 -4 -5 13 15 7 8 8 11 13 9 11 13 12 12 10 10 9 7 7 5 5 5 4 4 3 3 4 4 4 5 4 4 6 5 7 9 10 17 17 14 12 12 24 22 5 6 8 1 1 4 4 5 5 4 4 4 4 5 4 3 3 3 4 4 4 4 4 4 4
8 9 6 9 8 6 9 6 9 8 5 31 37 15 8 -2 -7 6 19 20 13 11 13 12 11 10 11 12 11 10 8 8 8 8 7 6 7 5 4 4 3 3 3 5 4 4 5 4 5 6 6 7 7 11 14 16 16 9 13 17 11 10 5 1 6 7 3 5 6 2 2 3 2 3 3 3 2 1 2 2 2 3 2 3 3
8 8 6 7 7 6 8 6 9 5 7 22 12 7 12 -9 -4 18 16 17 17 14 14 10 9 10 7 7 8 7 6 6 6 7 7 7 7 6 6 5 5 5 3 5 5 4 5 4 4 5 5 6 6 7 8 14 18 11 7 6 9 12 4 2 6 5 4 8 8 3 2 5 4 3 2 2 3 2 2 2 2 2 2 2 3
6 7 7 7 6 7 7 4 7 5 7 9 -4 20 39 -1 -9 14 12 11 11 8 9 7 7 7 5 6 6 6 6 6 6 6 6 7 7 7 7 7 6 7 6 5 6 6 6 6 6 6 5 5 5 5 6 11 11 12 17 8 4 12 9 7 7 6 9 8 8 6 3 6 5 3 5 3 4 4 3 3 3 3 3 3 3
7 7 7 8 6 6 7 4 6 4 5 11 2 9 22 8 5 12 8 9 7 6 7 5 6 6 6 7 5 6 6 6 8 7 9 10 10 10 10 11 11 10 10 10 9 10 9 10 10 10 9 7 6 5 5 8 3 7 23 16 4 10 13 12 9 8 11 10 13 13 7 12 12 5 5 3 4 6 5 5 5 5 5 5 4
7 8 6 6 6 6 7 4 5 7 3 6 9 7 8 8 9 8 8 9 6 7 8 6 7 7 7 8 7 8 9 10 12 12 14 14 14 14 12 12 13 12 12 11 10 10 9 10 10 9 11 10 9 9 6 7 3 3 17 16 7 10 12 14 10 4 9 12 15 13 6 11 17 11 8 7 7 7 6 5 5 5 5 5 6
6 7 6 6 8 9 11 11 8 9 8 5 6 8 9 9 10 11 11 10 9 11 11 11 11 10 11 12 12 13 12 13 13 14 14 13 12 12 11 10 9 9 9 9 8 9 8 8 7 7 8 9 9 10 8 8 8 6 7 7 6 9 9 12 11 6 7 10 12 14 7 4 13 15 10 8 7 7 7 5 4 6 6 5 6
7 8 9 10 13 14 13 16 15 12 12 11 9 8 8 9 9 9 9 11 13 12 12 13 12 12 12 12 13 13 12 11 11 11 10 9 9 9 9 8 7 7 7 8 8 7 7 7 7 7 6 7 7 8 8 7 9 8 7 6 5 6 6 8 9 7 6 5 7 10 7 4 13 17 13 10 7 4 6 7 5 3 4 5 6
10 10 12 12 13 15 13 13 15 16 16 14 13 10 9 8 9 10 10 10 10 10 11 11 10 11 10 10 11 9 9 9 8 8 8 7 7 7 8 7 6 6 5 6 7 6 7 6 6 6 5 6 6 6 7 6 7 7 8 12 9 6 7 7 7 9 10 9 9 10 5 4 10 12 12 12 11 8 6 7 7 4 2 4 5
11 9 10 12 10 10 11 11 11 13 14 14 14 13 12 12 11 11 11 10 10 11 10 10 10 10 9 8 8 8 8 8 8 8 7 7 7 6 7 6 6 7 6 6 6 6 7 7 7 7 7 7 7 7 7 6 7 6 7 10 10 7 8 7 6 9 9 6 8 11 6 6 9 9 11 11 10 14 13 7 7 7 3 1 3
9 9 8 9 10 9 8 8 9 9 9 10 12 13 14 14 13 11 11 10 10 9 8 8 8 7 8 7 7 7 7 7 8 7 7 7 7 7 6 6 6 6 6 6 7 8 9 10 10 10 11 11 11 10 9 8 8 8 10 11 10 8 7 8 8 10 10 6 8 12 9 9 11 11 16 14 8 14 18 14 14 13 8 5 2
7 8 9 8 7 8 8 7 8 8 8 9 9 10 10 9 9 8 8 8 6 7 7 6 6 6 6 6 6 7 6 6 6 6 7 7 7 7 7 7 7 7 7 7 8 10 11 11 10 9 10 10 10 10 10 9 8 7 8 8 9 10 9 8 7 7 10 8 7 10 9 9 9 7 11 12 9 13 16 17 21 19 18 18 13
8 7 8 8 7 6 8 7 8 7 7 8 7 6 5 5 5 4 5 5 5 5 5 5 6 6 5 6 7 7 6 6 6 6 7 6 6 7 7 7 8 7 7 7 8 10 9 8 8 7 8 8 8 9 9 9 9 7 6 6 6 7 10 12 9 6 7 7 5 6 7 8 9 7 7 9 10 14 16 17 20 17 16 20 22
8 8 6 6 7 7 7 6 6 6 5 5 4 3 3 2 3 3 3 4 4 5 6 6 5 5 6 7 6 7 6 6 6 6 6 6 6 6 7 7 8 8 8 9 8 8 7 6 7 8 9 9 9 9 10 10 11 11 10 10 8 5 4 8 10 7 6 7 6 5 5 5 6 7 6 6 10 15 15 12 13 12 10 12 15
6 7 7 6 7 7 7 7 6 6 5 4 3 3 3 3 4 5 5 5 6 7 8 8 9 9 8 8 8 8 7 7 7 7 7 8 7 7 8 8 8 9 9 9 8 8 7 6 7 8 7 8 9 9 9 9 10 11 11 11 12 10 7 6 8 9 8 7 6 4 4 3 3 4 4 4 8 11 9 8 13 13 8 8 9
7 7 7 7 8 9 8 8 8 7 7 6 6 5 5 5 6 8 8 8 9 9 9 9 10 9 9 9 9 8 8 8 8 9 9 8 8 8 8 8 9 9 9 9 8 8 8 7 7 8 7 8 9 9 9 10 9 10 10 10 10 11 12 11 11 12 12 11 9 8 8 7 6 5 4 3 4 5 3 5 12 13 12 13 14
7 7 7 8 9 10 9 9 8 9 9 10 10 9 9 10 10 9 8 8 9 8 8 8 8 9 9 9 9 8 8 8 8 8 8 8 8 8 8 8 8 9 8 8 8 8 8 8 8 8 8 8 9 9 10 11 11 10 10 11 10 10 11 11 12 13 14 13 13 12 12 11 10 9 8 4 2 3 2 1 1 4 10 14 14
8 8 8 9 10 10 10 10 9 9 9 10 11 11 11 10 9 8 7 7 7 8 8 9 9 9 9 8 8 8 8 9 9 9 8 8 9 9 9 9 9 9 9 8 8 8 7 8 8 8 9 9 8 9 9 10 11 11 10 11 11 11 11 11 10 11 13 14 14 15 15 14 14 13 12 8 4 6 7 5 1 -1 2 3 4
9 8 7 7 8 10 10 11 11 10 9 9 9 10 9 8 6 6 7 7 8 8 8 8 8 8 8 8 8 8 9 9 9 9 9 9 9 9 9 9 9 8 8 8 8 8 8 8 8 8 9 9 9 9 9 9 9 9 10 10 11 11 11 12 11 10 10 11 12 14 15 15 15 15 15 13 9 9 11 11 8 5 3 -0 -3
8 6 5 5 6 8 11 12 13 12 10 8 8 8 7 7 7 7 9 9 8 8 7 7 7 7 7 8 8 8 8 8 8 9 9 9 9 10 10 10 10 10 9 10 9 9 9 8 8 8 8 8 9 8 8 8 8 8 8 8 8 9 10 11 11 12 11 10 10 11 11 12 13 13 14 15 14 11 12 13 12 10 9 7 3
6 5 4 4 5 7 11 14 14 14 14 11 10 10 9 9 9 9 10 9 8 8 7 7 7 7 7 8 8 8 8 8 9 9 9 10 10 10 10 10 10 10 9 9 8 8 8 8 7 8 7 7 7 7 7 6 7 7 7 7 7 7 8 8 9 10 11 11 11 11 11 10 10 11 11 13 14 14 13 12 12 12 11 11 10
5 5 4 4 4 7 13 16 15 15 16 14 12 12 11 10 10 10 10 9 8 8 7 7 7 8 8 8 8 8 9 9 9 10 9 9 9 9 9 9 8 8 7 7 7 7 7 8 7 7 7 7 6 6 6 5 5 5 5 5 6 6 6 7 7 8 8 9 10 11 12 11 11 11 11 10 10 12 13 13 12 13 13 13 12
7 6 5 4 2 9 18 19 15 16 16 14 12 11 10 9 9 10 9 9 8 8 8 7 7 8 8 9 10 10 10 10 10 10 9 8 9 9 8 8 7 7 7 7 7 7 7 8 9 8 8 7 7 7 6 5 5 5 5 5 5 5 5 5 5 6 6 6 6 7 8 10 11 11 12 12 9 8 9 10 10 11 12 14 13
10 8 7 4 1 11 21 18 15 15 14 12 11 9 9 9 9 9 9 8 8 8 7 8 8 10 10 10 11 10 10 9 8 8 8 7 8 7 7 7 7 7 7 7 7 8 7 8 8 9 8 8 7 6 5 4 4 4 5 5 5 5 5 5 5 4 5 5 5 5 5 6 7 9 10 12 12 10 8 7 7 7 6 6 6
12 11 10 5 3 13 19 15 12 13 12 10 9 8 9 9 8 9 9 8 8 8 9 11 11 11 11 10 9 9 8 7 7 7 7 7 7 7 7 7 6 6 7 6 6 6 6 6 6 6 6 5 5 5 6 6 6 7 7 7 8 7 6 7 7 6 6 5 5 5 5 5 4 6 7 9 11 11 10 9 8 7 6 4 3
9 11 12 7 7 15 16 12 11 11 9 7 6 6 7 8 9 9 9 9 10 11 11 11 10 9 9 8 7 7 7 7 7 7 8 8 9 9 9 9 10 10 10 10 10 10 10 10 10 9 10 10 10 10 12 13 14 15 15 15 15 15 14 12 11 10 9 8 7 6 6 6 6 5 4 4 7 9 10 11 11 9 9 8 8
6 10 12 9 11 17 14 10 9 8 7 6 6 6 7 8 9 9 10 11 11 11 10 9 9 8 8 7 7 8 8 9 9 9 10 11 12 13 15 16 18 19 19 19 18 18 18 18 17 16 15 16 15 14 15 16 17 18 18 18 18 19 20 19 18 17 16 14 13 10 8 7 7 7 6 5 4 5 7 9 11 11 10 9 10
8 11 13 12 15 16 11 8 7 6 6 7 7 8 9 9 10 11 12 11 9 9 9 9 8 7 7 7 7 8 9 10 11 11 12 13 14 15 17 20 22 23 24 25 25 26 26 25 24 22 19 18 18 17 18 18 17 17 18 18 17 17 17 17 18 18 18 19 19 18 16 14 11 10 9 8 7 6 5 5 7 9 10 10 9
10 12 14 16 17 14 8 6 6 6 8 8 9 10 10 10 12 12 10 9 9 9 8 7 6 6 7 7 7 9 9 10 11 12 12 13 13 15 18 22 24 23 23 24 25 25 25 25 25 25 24 23 22 21 20 18 17 17 17 17 17 18 18 18 18 17 17 17 17 18 19 19 18 16 14 12 11 10 9 7 5 5 7 9 9
11 13 16 18 16 10 7 7 7 8 9 9 9 10 11 12 12 10 9 9 8 7 6 6 6 6 7 7 8 9 10 10 11 11 12 12 14 18 23 25 24 21 20 21 21 22 22 21 21 22 22 20 19 18 16 15 14 14 13 12 12 12 13 14 16 18 19 19 18 18 18 18 19 19 19 18 16 16 15 12 9 6 5 6 8
13 14 16 15 12 9 8 8 9 9 9 9 10 11 12 11 9 8 9 8 5 5 6 7 7 8 8 9 9 9 10 11 11 12 14 16 21 26 27 24 20 19 20 22 22 20 18 17 16 16 16 14 12 11 11 10 10 10 10 11 11 11 12 12 11 12 14 17 19 19 19 20 19 19 19 18 18 18 17 16 15 12 8 6 7
17 15 12 9 8 9 9 9 9 9 8 10 12 12 10 8 9 10 7 4 4 6 8 8 8 8 8 7 7 8 9 10 12 15 18 22 27 29 25 21 18 19 20 18 16 14 13 12 11 10 10 9 9 10 10 11 11 12 13 15 16 17 18 18 17 15 13 13 14 15 18 20 21 21 21 21 20 20 19 18 18 17 15 11 7
17 11 7 5 7 10 10 9 9 9 10 12 12 10 8 9 9 7 4 5 8 8 8 8 7 7 7 7 7 8 11 14 18 20 22 27 32 29 22 20 20 19 16 12 10 11 10 9 8 9 10 12 12 13 14 14 15 15 16 17 17 18 19 21 22 22 20 16 13 12 14 16 19 20 20 21 23 24 25 24 21 19 17 15 11
12 7 6 7 8 9 8 9 10 10 11 12 9 8 9 9 6 4 5 7 8 7 8 8 8 8 8 8 10 13 18 21 22 21 22 28 33 28 22 20 18 13 11 10 10 10 8 8 11 13 14 15 15 14 14 14 15 15 15 17 18 18 17 18 21 23 24 24 20 15 13 13 16 17 16 16 18 19 22 26 28 25 21 17 15
8 7 9 8 8 8 9 10 10 11 11 9 8 9 9 6 4 5 6 7 7 9 10 10 9 8 7 10 15 20 22 21 19 18 20 26 30 27 21 16 12 10 10 10 9 8 9 12 14 15 15 15 14 13 13 14 16 20 24 28 29 25 20 19 19 18 21 24 25 22 17 13 12 13 13 12 11 10 12 15 22 28 28 22 17
7 10 9 7 8 9 10 11 11 11 10 7 9 10 7 4 5 5 6 8 9 11 11 9 8 7 10 18 23 22 19 16 16 17 19 22 26 26 20 15 12 11 10 9 8 8 10 13 14 14 14 14 14 15 17 20 26 34 41 40 35 30 26 24 21 18 17 19 23 25 22 17 14 14 12 10 9 8 8 8 11 18 26 27 21
10 11 7 7 10 11 10 11 11 10 8 8 10 8 4 4 5 5 7 10 10 11 10 7 7 11 18 23 21 17 15 15 17 18 18 19 21 23 21 17 14 12 11 9 8 8 12 15 16 15 14 15 17 18 22 28 35 39 37 30 26 26 24 22 25 26 22 16 16 22 25 22 18 14 12 12 11 8 7 9 12 14 19 25 25
10 8 7 9 11 11 10 11 10 8 8 9 9 5 3 4 5 6 9 10 10 10 8 6 10 18 22 21 16 14 14 15 17 19 19 18 17 19 20 17 14 12 11 9 8 9 14 17 18 19 19 19 19 18 23 33 36 30 20 13 15 20 17 14 19 24 22 17 14 16 22 27 26 21 18 15 12 10 8 11 18 19 17 21 24
9 7 8 10 11 11 10 10 9 8 9 10 6 3 3 4 6 9 10 10 11 8 6 8 15 20 20 17 14 13 14 16 18 19 20 18 16 17 19 18 14 11 10 10 9 9 11 15 18 20 21 19 15 17 25 34 32 22 13 11 14 17 16 13 14 14 13 16 17 13 14 20 22 22 21 16 11 10 11 14 22 24 20 21 22
Height
5902 5901 5901 5900 5899 5898 5897 5895 5894 5892 5891 5890 5889 5888 5888 5887 5886 5885 5884 5884 5883 5883 5882 5882 5881 5880 5878 5878 5877 5876 5875 5874 5873 5872 5871 5870 5870 5869 5869 5868 5867 5866 5865 5865 5865 5866 5867 5866 5866 5865 5865 5866 5868 5870 5871 5871 5872 5872 5873 5874 5875 5876 5876 5876 5877 5878 5880 5881 5882 5883 5883 5884 5885 5887 5889 5891 5893 5894 5896 5897 5898 5899 5900 5901 5902
5901 5900 5900 5899 5897 5896 5894 5893 5891 5890 5889 5888 5887 5887 5886 5885 5885 5884 5883 5882 5882 5881 5881 5880 5879 5878 5877 5876 5876 5874 5873 5872 5871 5871 5870 5869 5869 5868 5868 5867 5867 5866 5865 5865 5864 5864 5865 5864 5863 5863 5863 5864 5865 5868 5870 5870 5871 5871 5872 5873 5874 5875 5876 5876 5877 5878 5880 5881 5882 5883 5884 5884 5885 5886 5887 5890 5892 5893 5894 5896 5897 5898 5899 5900 5901
5900 5899 5898 5897 5895 5893 5891 5890 5889 5887 5887 5886 5885 5885 5884 5883 5882 5882 5881 5881 5880 5880 5878 5878 5877 5876 5875 5875 5874 5873 5871 5870 5870 5870 5869 5868 5868 5868 5867 5865 5865 5866 5866 5864 5863 5862 5863 5862 5861 5861 5861 5862 5862 5865 5868 5869 5870 5871 5871 5872 5873 5875 5876 5876 5877 5878 5879 5881 5882 5883 5884 5885 5885 5886 5887 5889 5891 5892 5893 5894 5895 5896 5898 5899 5900
5898 5897 5896 5895 5893 5890 5889 5888 5887 5885 5885 5885 5883 5882 5881 5880 5879 5879 5878 5878 5878 5877 5876 5876 5875 5875 5874 5873 5872 5871 5870 5869 5869 5869 5868 5868 5868 5867 5867 5865 5864 5864 5865 5864 5862 5862 5861 5860 5860 5860 5861 5862 5860 5862 5865 5867 5869 5870 5871 5872 5872 5874 5875 5876 5877 5878 5879 5880 5881 5882 5884 5885 5886 5886 5887 5888 5890 5891 5892 5893 5894 5895 5896 5898 5900
5897 5896 5894 5893 5891 5889 5887 5886 5884 5883 5883 5882 5881 5879 5877 5876 5876 5876 5876 5876 5876 5875 5874 5874 5873 5873 5872 5872 5871 5869 5868 5868 5868 5868 5868 5867 5867 5867 5866 5865 5863 5863 5863 5863 5861 5861 5860 5860 5860 5859 5859 5860 5860 5860 5862 5864 5867 5868 5870 5871 5872 5873 5874 5876 5877 5878 5878 5879 5881 5882 5883 5884 5885 5886 5887 5887 5888 5889 5890 5892 5893 5894 5895 5897 5898
5894 5893 5892 5891 5889 5887 5885 5883 5882 5881 5880 5880 5880 5877 5874 5873 5873 5873 5873 5873 5874 5873 5872 5872 5872 5872 5871 5870 5869 5868 5867 5867 5868 5868 5868 5867 5867 5866 5866 5865 5863 5862 5862 5862 5861 5860 5860 5861 5861 5858 5857 5857 5858 5860 5861 5862 5865 5867 5869 5869 5870 5872 5873 5874 5876 5877 5878 5879 5880 5881 5882 5883 5884 5885 5886 5887 5887 5888 5889 5890 5892 5893 5894 5895 5896
5891 5891 5889 5888 5886 5884 5883 5881 5880 5880 5879 5879 5877 5874 5872 5871 5870 5871 5871 5871 5871 5871 5871 5871 5871 5870 5870 5869 5868 5866 5866 5866 5867 5867 5867 5867 5866 5866 5865 5864 5863 5862 5862 5861 5860 5859 5859 5860 5860 5858 5857 5857 5858 5860 5861 5861 5862 5865 5867 5868 5869 5870 5871 5873 5874 5876 5877 5878 5878 5879 5880 5882 5883 5884 5885 5886 5886 5887 5888 5889 5891 5892 5893 5894 5895
5889 5888 5887 5886 5884 5883 5882 5879 5877 5877 5876 5876 5874 5872 5871 5870 5869 5869 5868 5867 5868 5869 5869 5870 5869 5869 5868 5867 5866 5865 5865 5865 5866 5866 5866 5866 5865 5865 5864 5863 5862 5862 5862 5861 5860 5859 5858 5858 5858 5858 5857 5858 5858 5859 5860 5860 5859 5861 5864 5865 5867 5868 5870 5871 5872 5873 5875 5876 5877 5878 5879 5880 5882 5883 5884 5885 5886 5886 5887 5888 5889 5891 5892 5892 5894
5888 5887 5886 5884 5883 5882 5880 5877 5874 5873 5873 5872 5870 5869 5868 5868 5867 5868 5866 5864 5866 5866 5867 5868 5868 5868 5867 5866 5865 5864 5864 5864 5864 5865 5865 5865 5864 5864 5863 5863 5862 5861 5861 5861 5860 5859 5857 5857 5857 5857 5857 5857 5857 5858 5859 5859 5859 5860 5861 5863 5865 5867 5868 5870 5870 5871 5873 5874 5875 5876 5878 5879 5881 5882 5883 5884 5885 5886 5886 5887 5888 5889 5890 5891 5893
5887 5885 5884 5883 5881 5880 5878 5875 5872 5871 5870 5869 5867 5866 5866 5864 5864 5865 5864 5863 5864 5865 5865 5866 5866 5866 5865 5864 5863 5863 5863 5863 5863 5863 5863 5863 5863 5863 5863 5862 5861 5860 5860 5860 5859 5859 5857 5856 5856 5856 5857 5857 5856 5856 5858 5859 5859 5859 5860 5862 5864 5865 5866 5868 5869 5870 5871 5873 5874 5875 5876 5878 5879 5880 5882 5883 5884 5885 5885 5886 5886 5887 5889 5890 5891
5886 5885 5883 5882 5880 5879 5876 5874 5872 5870 5869 5867 5865 5864 5864 5862 5863 5864 5864 5863 5863 5863 5864 5864 5865 5864 5864 5863 5862 5862 5861 5861 5861 5862 5862 5862 5862 5861 5861 5861 5860 5860 5859 5859 5858 5858 5857 5856 5857 5857 5857 5857 5855 5856 5856 5857 5857 5857 5859 5862 5862 5861 5862 5864 5867 5868 5869 5871 5873 5874 5875 5876 5877 5879 5880 5881 5882 5883 5884 5885 5886 5886 5887 5889 5890
5885 5884 5882 5881 5879 5878 5876 5874 5872 5870 5868 5866 5863 5862 5861 5860 5862 5865 5864 5863 5862 5863 5863 5863 5863 5863 5862 5862 5861 5860 5860 5860 5860 5860 5860 5861 5860 5860 5860 5859 5859 5859 5858 5858 5857 5857 5857 5856 5856 5856 5856 5857 5856 5856 5856 5856 5856 5857 5858 5860 5860 5859 5860 5861 5864 5866 5867 5869 5870 5872 5873 5875 5876 5877 5878 5879 5881 5882 5883 5884 5885 5885 5886 5888 5889
5884 5883 5881 5879 5878 5877 5875 5873 5871 5869 5867 5865 5862 5861 5859 5861 5864 5866 5865 5863 5862 5862 5862 5862 5862 5862 5861 5860 5860 5860 5859 5859 5859 5859 5859 5859 5859 5859 5858 5858 5858 5858 5857 5857 5857 5856 5856 5855 5855 5855 5855 5856 5855 5855 5855 5855 5855 5856 5857 5857 5858 5858 5857 5858 5861 5862 5863 5866 5868 5869 5870 5872 5874 5875 5876 5877 5878 5880 5881 5882 5883 5884 5885 5886 5887
5883 5882 5880 5878 5877 5876 5874 5872 5870 5869 5866 5864 5863 5862 5860 5863 5868 5867 5864 5863 5862 5861 5861 5861 5861 5861 5860 5860 5860 5859 5859 5858 5858 5858 5858 5858 5858 5857 5857 5856 5856 5856 5856 5856 5855 5855 5854 5854 5854 5854 5854 5854 5854 5854 5854 5854 5853 5853 5855 5856 5857 5857 5855 5856 5858 5859 5862 5864 5866 5868 5869 5870 5871 5872 5873 5875 5876 5877 5879 5880 5881 5882 5883 5884 5885
5882 5881 5879 5877 5876 5875 5874 5872 5870 5869 5866 5864 5863 5861 5860 5864 5867 5866 5864 5862 5861 5860 5860 5860 5860 5860 5859 5859 5859 5859 5858 5857 5857 5856 5856 5856 5856 5856 5855 5855 5854 5854 5854 5854 5853 5853 5853 5853 5852 5852 5852 5852 5852 5853 5853 5852 5851 5851 5853 5854 5855 5855 5854 5855 5857 5859 5861 5863 5864 5867 5868 5868 5869 5871 5872 5872 5874 5875 5876 5877 5878 5880 5881 5882 5883
5881 5880 5878 5877 5875 5874 5873 5871 5870 5868 5867 5865 5863 5862 5863 5865 5865 5864 5863 5862 5860 5860 5860 5860 5859 5859 5858 5858 5858 5858 5857 5857 5856 5855 5855 5855 5854 5854 5854 5853 5853 5852 5852 5851 5851 5851 5851 5851 5851 5851 5851 5851 5850 5851 5851 5851 5850 5850 5852 5854 5854 5854 5854 5855 5856 5857 5860 5861 5863 5865 5866 5867 5867 5868 5870 5870 5871 5872 5873 5874 5875 5876 5878 5879 5880
5880 5879 5877 5876 5875 5873 5872 5870 5869 5868 5866 5865 5864 5863 5864 5865 5864 5863 5862 5861 5860 5860 5859 5859 5858 5858 5857 5857 5857 5856 5856 5856 5855 5854 5854 5853 5853 5852 5852 5851 5851 5850 5849 5849 5848 5848 5848 5848 5848 5848 5849 5849 5849 5849 5849 5850 5850 5850 5851 5852 5852 5853 5853 5853 5854 5855 5857 5858 5859 5860 5861 5862 5864 5865 5866 5867 5868 5870 5870 5871 5872 5873 5875 5876 5877
5878 5877 5876 5875 5874 5872 5871 5869 5868 5867 5865 5864 5864 5863 5862 5862 5862 5861 5860 5860 5859 5859 5858 5858 5857 5856 5856 5855 5855 5855 5854 5854 5853 5853 5852 5852 5851 5851 5850 5849 5849 5848 5848 5847 5846 5846 5846 5846 5846 5846 5846 5846 5847 5847 5847 5848 5848 5848 5849 5851 5851 5851 5851 5851 5852 5852 5853 5854 5855 5855 5857 5858 5859 5859 5861 5863 5865 5867 5868 5869 5869 5870 5872 5873 5874
5877 5876 5875 5873 5872 5871 5870 5869 5867 5866 5864 5863 5863 5862 5861 5861 5860 5859 5859 5858 5858 5857 5857 5856 5856 5855 5855 5854 5854 5853 5853 5852 5851 5851 5851 5850 5850 5849 5849 5847 5846 5846 5846 5845 5845 5844 5844 5844 5844 5843 5843 5844 5844 5844 5845 5845 5845 5845 5847 5849 5850 5849 5848 5848 5849 5849 5849 5850 5851 5852 5853 5854 5854 5854 5855 5859 5861 5863 5864 5866 5867 5867 5868 5870 5871
5876 5875 5873 5872 5871 5870 5869 5868 5866 5865 5864 5863 5862 5861 5860 5859 5858 5858 5857 5857 5856 5856 5855 5855 5854 5854 5853 5853 5852 5851 5851 5850 5850 5850 5849 5849 5848 5847 5847 5846 5845 5844 5843 5843 5843 5842 5842 5842 5841 5841 5841 5841 5841 5842 5842 5842 5842 5842 5843 5845 5847 5846 5845 5845 5845 5845 5845 5845 5847 5849 5850 5851 5851 5851 5852 5855 5856 5857 5859 5861 5862 5862 5864 5866 5868
5875 5873 5872 5871 5870 5869 5868 5867 5865 5864 5863 5862 5861 5860 5859 5858 5857 5856 5856 5855 5855 5854 5854 5853 5853 5852 5852 5851 5850 5850 5849 5849 5849 5848 5847 5847 5846 5845 5845 5844 5843 5842 5841 5841 5840 5840 5840 5840 5839 5839 5839 5838 5838 5839 5839 5839 5840 5839 5839 5841 5843 5843 5842 5841 5840 5840 5841 5843 5844 5845 5846 5846 5848 5848 5849 5851 5852 5853 5854 5856 5857 5858 5860 5863 5865
5873 5872 5870 5869 5868 5867 5866 5865 5864 5863 5862 5861 5860 5859 5858 5857 5856 5855 5855 5854 5853 5853 5852 5852 5852 5852 5851 5850 5849 5849 5848 5847 5847 5846 5845 5844 5844 5843 5842 5841 5840 5839 5839 5838 5838 5837 5837 5837 5837 5837 5836 5836 5836 5836 5836 5836 5837 5837 5836 5836 5839 5840 5840 5839 5838 5838 5839 5840 5840 5840 5841 5842 5843 5844 5845 5847 5848 5849 5850 5852 5855 5856 5857 5859 5862
5872 5870 5869 5868 5867 5866 5865 5864 5863 5862 5861 5861 5860 5859 5858 5857 5856 5855 5854 5853 5852 5852 5852 5851 5851 5851 5850 5849 5848 5847 5846 5846 5845 5844 5843 5842 5842 5841 5840 5839 5838 5837 5836 5835 5835 5835 5834 5834 5834 5834 5834 5834 5834 5833 5833 5834 5834 5835 5834 5833 5834 5836 5836 5835 5835 5836 5837 5837 5837 5837 5838 5839 5840 5841 5842 5842 5844 5845 5847 5851 5854 5855 5855 5855 5858
5871 5869 5868 5867 5866 5865 5864 5863 5862 5861 5860 5859 5859 5858 5857 5856 5855 5854 5853 5853 5852 5852 5851 5850 5850 5849 5848 5847 5846 5845 5844 5843 5843 5842 5841 5840 5839 5838 5837 5836 5835 5834 5833 5832 5832 5832 5832 5831 5831 5830 5830 5830 5830 5829 5829 5830 5831 5832 5831 5830 5829 5830 5830 5830 5830 5832 5833 5834 5834 5834 5834 5835 5836 5837 5838 5839 5840 5843 5845 5848 5850 5851 5851 5852 5853
5870 5869 5867 5866 5865 5864 5863 5862 5861 5860 5859 5859 5858 5857 5856 5855 5855 5854 5853 5852 5852 5851 5850 5849 5848 5847 5846 5845 5844 5843 5842 5841 5840 5839 5838 5837 5836 5836 5835 5834 5832 5831 5830 5830 5829 5829 5828 5828 5827 5827 5826 5826 5825 5825 5825 5825 5825 5826 5827 5825 5824 5824 5825 5825 5825 5826 5828 5829 5830 5830 5830 5830 5832 5834 5835 5836 5838 5840 5842 5843 5845 5846 5847 5848 5848
5869 5868 5867 5866 5864 5863 5862 5861 5860 5859 5859 5858 5857 5856 5855 5854 5853 5852 5852 5851 5850 5849 5848 5847 5846 5845 5844 5844 5842 5841 5840 5838 5837 5836 5835 5834 5833 5832 5831 5831 5829 5828 5827 5826 5826 5825 5825 5824 5823 5823 5823 5822 5821 5821 5820 5820 5821 5821 5822 5821 5820 5820 5821 5821 5820 5821 5823 5824 5825 5827 5826 5826 5828 5829 5832 5833 5834 5835 5836 5837 5838 5840 5840 5841 5841
5868 5867 5867 5866 5864 5863 5862 5861 5859 5859 5858 5857 5856 5855 5854 5853 5852 5850 5849 5848 5848 5847 5846 5845 5844 5844 5843 5842 5840 5839 5838 5836 5835 5833 5832 5831 5830 5829 5828 5827 5826 5825 5824 5823 5822 5821 5821 5820 5819 5819 5818 5818 5818 5817 5816 5816 5816 5816 5817 5817 5817 5817 5817 5817 5817 5817 5819 5819 5820 5821 5822 5823 5823 5825 5827 5828 5829 5830 5831 5832 5834 5835 5835 5834 5833
5867 5867 5866 5865 5864 5863 5861 5860 5858 5857 5856 5855 5854 5853 5852 5851 5850 5849 5848 5847 5846 5845 5844 5843 5842 5841 5840 5839 5838 5837 5835 5834 5832 5831 5829 5828 5827 5826 5825 5824 5823 5821 5820 5819 5818 5817 5816 5815 5815 5814 5814 5813 5813 5813 5812 5811 5811 5811 5811 5811 5812 5812 5812 5813 5813 5814 5815 5816 5816 5816 5818 5819 5820 5820 5821 5821 5823 5825 5827 5828 5829 5830 5830 5829 5828
5867 5866 5865 5864 5863 5862 5860 5858 5857 5856 5855 5854 5853 5852 5850 5849 5848 5847 5846 5845 5844 5843 5842 5841 5840 5839 5838 5837 5836 5834 5833 5832 5830 5828 5827 5826 5824 5823 5821 5820 5819 5818 5817 5816 5815 5814 5812 5811 5810 5810 5809 5808 5808 5808 5807 5807 5806 5806 5806 5806 5806 5806 5807 5808 5809 5809 5810 5811 5812 5813 5814 5815 5816 5816 5815 5814 5817 5821 5823 5824 5825 5826 5825 5823 5823
5866 5865 5864 5863 5861 5860 5858 5857 5856 5854 5853 5852 5851 5850 5849 5848 5847 5846 5844 5843 5842 5841 5840 5839 5838 5837 5836 5834 5833 5832 5831 5829 5828 5826 5824 5823 5821 5820 5818 5817 5815 5814 5813 5812 5811 5810 5809 5808 5806 5805 5804 5804 5803 5803 5802 5802 5802 5801 5801 5800 5800 5800 5801 5801 5803 5804 5804 5805 5806 5808 5809 5810 5811 5811 5810 5810 5811 5815 5818 5819 5820 5820 5819 5819 5820
5865 5864 5863 5861 5860 5858 5857 5855 5854 5853 5852 5851 5850 5849 5847 5846 5845 5844 5843 5841 5840 5839 5838 5836 5835 5834 5833 5832 5830 5829 5828 5826 5824 5823 5821 5820 5818 5817 5815 5813 5812 5810 5809 5808 5806 5805 5804 5803 5802 5801 5800 5799 5798 5797 5797 5797 5796 5796 5796 5795 5795 5794 5794 5795 5797 5798 5799 5800 5800 5800 5802 5804 5805 5806 5806 5806 5808 5810 5811 5813 5814 5814 5814 5815 5817
5864 5863 5862 5860 5859 5857 5856 5854 5853 5851 5850 5849 5848 5847 5846 5845 5843 5842 5841 5839 5838 5836 5835 5833 5832 5831 5830 5829 5827 5826 5824 5823 5821 5820 5818 5817 5815 5814 5812 5810 5808 5807 5805 5804 5802 5801 5800 5799 5798 5797 5796 5794 5793 5792 5791 5791 5791 5791 5790 5790 5790 5789 5789 5789 5790 5792 5793 5795 5795 5795 5795 5797 5799 5800 5800 5801 5804 5805 5806 5806 5807 5809 5810 5812 5814
5864 5862 5861 5859 5858 5856 5854 5853 5851 5850 5849 5848 5846 5845 5844 5843 5841 5840 5839 5837 5835 5834 5832 5831 5829 5828 5827 5825 5824 5822 5821 5820 5818 5816 5815 5813 5811 5810 5808 5807 5805 5803 5801 5799 5798 5796 5794 5793 5792 5791 5790 5789 5788 5787 5786 5785 5785 5785 5785 5784 5784 5784 5784 5784 5784 5785 5787 5789 5790 5791 5790 5791 5792 5794 5795 5796 5798 5801 5802 5801 5801 5804 5806 5808 5809
5863 5861 5860 5858 5857 5855 5853 5851 5850 5849 5847 5846 5845 5844 5842 5841 5840 5838 5837 5835 5834 5832 5830 5829 5827 5825 5824 5822 5821 5819 5817 5816 5814 5812 5810 5808 5807 5805 5803 5802 5800 5798 5796 5794 5792 5790 5789 5787 5786 5785 5784 5783 5782 5781 5781 5780 5780 5779 5779 5779 5778 5778 5778 5778 5778 5779 5780 5782 5784 5785 5785 5786 5787 5788 5789 5790 5792 5795 5797 5797 5796 5798 5802 5804 5806
5861 5859 5858 5857 5856 5854 5852 5850 5849 5847 5846 5845 5844 5842 5841 5840 5838 5837 5836 5834 5832 5830 5828 5826 5825 5823 5821 5819 5817 5816 5814 5811 5809 5807 5805 5803 5801 5800 5798 5796 5794 5792 5790 5788 5787 5785 5783 5782 5780 5779 5777 5776 5776 5775 5774 5774 5773 5773 5773 5772 5772 5772 5772 5772 5772 5773 5774 5775 5777 5778 5779 5781 5782 5782 5783 5784 5786 5789 5792 5793 5792 5793 5795 5799 5802
5859 5857 5856 5855 5854 5852 5851 5849 5848 5847 5845 5844 5842 5841 5840 5838 5837 5835 5834 5832 5830 5828 5826 5824 5822 5820 5818 5816 5814 5812 5809 5807 5804 5802 5800 5798 5796 5794 5792 5790 5788 5786 5784 5782 5780 5779 5777 5775 5773 5772 5770 5769 5769 5768 5767 5767 5766 5766 5766 5765 5765 5765 5766 5766 5766 5766 5767 5768 5770 5772 5773 5775 5776 5777 5777 5778 5780 5783 5785 5788 5789 5789 5790 5793 5797
5857 5856 5854 5853 5852 5850 5849 5848 5847 5846 5844 5843 5841 5840 5838 5837 5835 5834 5832 5830 5828 5826 5824 5822 5819 5817 5815 5812 5810 5807 5805 5802 5799 5797 5794 5792 5789 5787 5785 5783 5780 5778 5776 5774 5772 5771 5770 5769 5767 5765 5763 5762 5761 5760 5759 5759 5758 5758 5758 5758 5757 5757 5758 5759 5759 5760 5760 5761 5762 5764 5766 5768 5770 5771 5772 5772 5774 5776 5779 5781 5783 5785 5786 5788 5791
5857 5855 5853 5852 5851 5849 5848 5847 5846 5845 5843 5842 5840 5838 5837 5835 5833 5832 5830 5828 5826 5823 5821 5819 5816 5814 5811 5808 5806 5803 5800 5797 5794 5791 5788 5785 5783 5780 5777 5775 5772 5770 5767 5765 5763 5762 5761 5760 5759 5757 5756 5754 5753 5751 5751 5751 5750 5749 5749 5749 5749 5749 5749 5750 5751 5752 5753 5754 5755 5756 5758 5760 5762 5765 5766 5767 5769 5770 5773 5775 5777 5779 5781 5783 5786
5856 5854 5853 5851 5850 5848 5847 5846 5845 5844 5842 5840 5839 5837 5835 5833 5831 5830 5828 5825 5823 5821 5818 5816 5813 5810 5808 5805 5802 5799 5796 5793 5789 5786 5782 5779 5775 5772 5769 5766 5764 5761 5759 5756 5754 5753 5751 5750 5749 5747 5746 5745 5744 5743 5743 5743 5742 5741 5741 5740 5740 5740 5741 5741 5742 5743 5745 5746 5747 5749 5750 5752 5754 5757 5759 5761 5763 5765 5767 5769 5771 5773 5776 5778 5780
5856 5854 5852 5851 5849 5847 5846 5844 5843 5842 5841 5839 5837 5836 5834 5832 5830 5828 5826 5823 5820 5818 5815 5813 5810 5807 5804 5801 5798 5795 5791 5788 5784 5780 5776 5772 5768 5764 5761 5758 5755 5752 5750 5748 5746 5745 5743 5741 5739 5738 5737 5736 5735 5735 5734 5734 5733 5733 5733 5732 5732 5732 5732 5733 5734 5735 5736 5738 5739 5741 5742 5744 5746 5748 5751 5753 5756 5759 5762 5764 5766 5767 5770 5772 5775
5854 5853 5851 5850 5848 5846 5845 5843 5842 5841 5840 5838 5836 5835 5833 5831 5828 5826 5823 5820 5818 5815 5813 5810 5807 5804 5801 5798 5794 5790 5786 5782 5778 5774 5769 5765 5761 5757 5753 5750 5747 5744 5742 5741 5739 5738 5736 5734 5733 5731 5730 5729 5728 5728 5727 5727 5726 5726 5726 5725 5725 5725 5725 5725 5726 5727 5728 5730 5731 5733 5735 5736 5738 5740 5742 5745 5748 5751 5754 5757 5760 5762 5764 5767 5770
5852 5851 5850 5849 5847 5846 5844 5843 5841 5840 5838 5837 5835 5833 5831 5829 5827 5824 5821 5818 5815 5813 5810 5807 5804 5801 5797 5793 5789 5785 5781 5776 5772 5767 5762 5758 5754 5750 5746 5744 5741 5739 5737 5735 5734 5732 5731 5729 5728 5727 5726 5724 5723 5722 5721 5721 5720 5720 5719 5719 5718 5718 5718 5718 5719 5720 5721 5723 5724 5726 5727 5729 5731 5733 5735 5737 5740 5743 5746 5749 5753 5757 5759 5762 5764
5850 5849 5848 5848 5847 5845 5844 5842 5840 5839 5837 5835 5834 5832 5830 5827 5825 5822 5819 5816 5814 5811 5808 5805 5801 5798 5794 5789 5785 5781 5776 5772 5767 5762 5757 5753 5748 5744 5741 5738 5736 5734 5732 5731 5730 5729 5727 5726 5725 5723 5722 5720 5718 5717 5716 5715 5713 5713 5713 5712 5712 5711 5711 5711 5712 5713 5715 5716 5718 5719 5721 5722 5725 5727 5729 5731 5733 5736 5739 5742 5746 5751 5754 5757 5759
5849 5848 5847 5846 5846 5845 5843 5841 5839 5838 5836 5834 5832 5830 5828 5826 5823 5820 5818 5815 5812 5809 5805 5802 5798 5794 5790 5786 5782 5777 5773 5768 5763 5757 5752 5747 5743 5739 5736 5734 5732 5730 5728 5727 5726 5725 5724 5723 5721 5719 5718 5716 5714 5712 5711 5709 5707 5706 5705 5704 5704 5704 5704 5704 5705 5706 5708 5710 5712 5713 5715 5716 5719 5721 5723 5725 5727 5730 5732 5735 5739 5744 5748 5751 5754
5849 5847 5845 5845 5844 5844 5842 5840 5838 5836 5835 5833 5831 5829 5827 5824 5822 5819 5817 5814 5810 5807 5803 5800 5796 5792 5788 5783 5778 5774 5769 5764 5758 5753 5747 5742 5738 5734 5731 5729 5728 5726 5725 5724 5723 5722 5720 5719 5717 5715 5713 5712 5709 5706 5705 5703 5701 5699 5698 5697 5696 5696 5696 5696 5697 5698 5701 5703 5705 5708 5709 5711 5713 5716 5718 5720 5723 5725 5728 5730 5733 5737 5742 5745 5749
5848 5847 5845 5843 5843 5842 5841 5839 5837 5835 5834 5832 5830 5828 5825 5823 5821 5818 5815 5812 5809 5805 5801 5798 5794 5789 5785 5780 5775 5770 5764 5759 5753 5748 5742 5737 5733 5730 5728 5726 5724 5722 5721 5720 5719 5718 5716 5715 5713 5710 5708 5706 5704 5701 5698 5697 5695 5693 5692 5690 5689 5689 5689 5690 5690 5691 5693 5697 5699 5701 5704 5707 5709 5711 5714 5716 5719 5721 5724 5726 5728 5732 5736 5740 5743
5848 5847 5844 5843 5842 5841 5840 5838 5836 5834 5833 5831 5829 5827 5824 5822 5819 5817 5813 5810 5806 5803 5799 5795 5790 5786 5781 5776 5771 5765 5759 5754 5748 5743 5738 5733 5729 5726 5724 5722 5721 5719 5718 5716 5715 5714 5712 5710 5708 5705 5703 5701 5698 5695 5692 5690 5688 5686 5684 5683 5683 5683 5683 5684 5685 5686 5688 5691 5693 5695 5698 5702 5704 5707 5710 5713 5715 5718 5721 5723 5725 5728 5731 5734 5738
5847 5846 5844 5842 5842 5841 5839 5837 5835 5834 5832 5830 5828 5826 5823 5821 5818 5815 5812 5808 5804 5800 5796 5792 5787 5783 5778 5772 5766 5760 5755 5749 5744 5739 5735 5730 5726 5723 5721 5719 5718 5716 5715 5713 5712 5710 5707 5705 5702 5700 5697 5695 5692 5690 5687 5684 5681 5679 5678 5677 5677 5678 5678 5679 5680 5681 5683 5686 5687 5689 5693 5696 5700 5703 5706 5709 5712 5715 5717 5720 5722 5724 5727 5730 5733
5846 5845 5843 5842 5841 5840 5838 5836 5835 5833 5831 5829 5827 5825 5822 5820 5817 5813 5809 5806 5802 5798 5794 5790 5785 5780 5775 5768 5762 5757 5751 5746 5741 5736 5732 5727 5724 5721 5718 5716 5714 5713 5711 5710 5708 5706 5704 5702 5699 5696 5693 5690 5687 5684 5682 5679 5676 5674 5674 5673 5674 5674 5675 5676 5677 5678 5679 5681 5683 5685 5688 5692 5696 5700 5702 5705 5708 5712 5714 5717 5719 5721 5723 5726 5729
5845 5844 5843 5842 5841 5840 5838 5836 5834 5832 5830 5828 5826 5824 5822 5818 5815 5811 5808 5804 5801 5797 5793 5789 5784 5778 5771 5765 5759 5753 5748 5742 5737 5732 5728 5724 5721 5718 5715 5713 5711 5709 5708 5706 5704 5702 5700 5698 5695 5692 5689 5686 5683 5681 5678 5674 5672 5671 5671 5671 5672 5672 5672 5673 5674 5675 5676 5678 5680 5682 5685 5689 5693 5696 5699 5702 5705 5709 5712 5713 5715 5717 5720 5722 5725
5845 5844 5843 5842 5841 5839 5837 5835 5833 5831 5830 5828 5826 5823 5820 5817 5813 5810 5807 5804 5800 5796 5792 5787 5781 5775 5768 5762 5757 5751 5745 5740 5734 5730 5725 5721 5718 5715 5712 5710 5708 5706 5705 5703 5701 5698 5695 5693 5690 5687 5685 5682 5680 5677 5674 5671 5669 5669 5669 5670 5670 5670 5671 5672 5672 5672 5673 5675 5677 5680 5683 5687 5690 5693 5696 5699 5703 5707 5709 5709 5711 5714 5717 5719 5722